Aérodrome :
LOGIN :

S'inscrire | Disclaimer

   EN    FR    IT 

 










Légende :    VFR   VFR Marginal   IFR   IFR Intensif   IFR Très Intensif
Visi : 
Plafond : 
>= 8 km
>= 3000ft
5 à 8 km
1000 à 3000 ft
1500m à 5 km
500 à 1000 ft
800 à 1500m
200 à 500 ft
< 800m
< 200 ft
Symboles :   Orages  Brouillard  Fortes neiges  Fortes précipitations  Vent > 20 kt
SIGMETs :   Divers  Orages  Givrage  Turbulence  Onde Orograph.  Cendres Volcan.







- Altitude de l'aérodrome : 468 ft
- Code IATA : GRO


LEGE - Girona Costa Brava

DERNIER METAR :
  • 241000Z 19002KT 9999 FEW040 24/12 Q1020

METARs EXPIRÉS :
  • 240930Z 22003KT 170V270 CAVOK 22/15 Q1020
  • 240900Z VRB02KT CAVOK 21/14 Q1020
  • 240830Z VRB02KT CAVOK 19/14 Q1020
  • 240800Z VRB01KT CAVOK 19/14 Q1020
  • 240730Z 00000KT CAVOK 17/13 Q1020

TAF TAF LEGE
Valide du 24 à 06h jusqu'au 25 à 06h UTC


240500Z 2406/2506 VRB03KT 9999 FEW050 TX28/2413Z TN13/2506Z
BECMG 2410/2413 14010KT
BECMG 2418/2421 VRB03KT
Pas de NOTAMs connus pour ce terrain.



MET'MAP, la Météo Aéronautique d'un coup d'oeil ! - Copyright ORBIFLY Décembre 2007 - Disclaimer

ORBIFLY MET'MAP TEAM :

Programmation & Développement : Alexandra Zaïnal
Conception & Développement : Baudouin d'Aumeries
Co-Programmation & Développement : Marc-Olivier Méhu
Soutien technique & logistique : Manuel Goepfert

Contact : metmap@orbifly.com




SOURCES & CREDITS :

   NOAA